[[{"header":{"parameterUnit":"m.s-1","parameterCategory":1,"la1":30.2991,"la2":30.254,"lo1":-89.0895,"lo2":-89.0444,"dy":0.0017,"dx":0.0017,"nx":28,"ny":28,"refTime":"2025-04-03T09:00:00:Z","depth":0,"parameterNumber":2,"parameterNumberName":"U-component_of_WINDS"},"data":[0,0,0,0,0,0,0,0,0,0,0,0,0,0,0,0,0,0,0,0,0,0,0,0,0,0,0,0,0,0,0,0,0,0,0,0,0,0,0,0,0,0,0,0,0,0,0,0,0,0,0,0,0,0,0,0,0,0,-5.7007,-5.7009,0,-5.7123,-5.7125,-5.7126,-5.7125,-5.7124,-5.7122,-5.7121,-5.7237,-5.7241,-5.7246,0,0,0,0,0,0,0,0,0,0,0,0,0,-5.6784,-5.6788,-5.7007,-5.7009,-5.701,-5.7123,-5.7125,-5.7126,-5.7125,-5.7124,-5.7122,-5.712,-5.7235,-5.7241,-5.7246,0,0,0,0,0,0,0,0,0,0,0,0,0,-5.6888,-5.6789,-5.7007,-5.7024,-5.7026,-5.7123,-5.7125,-5.7127,-5.7126,-5.7124,-5.7121,-5.7119,-5.7234,-5.724,-5.7247,-5.7334,0,0,-5.7267,-5.727,0,0,0,0,0,0,0,0,-5.6883,-5.6897,-5.702,-5.7023,-5.7026,-5.7108,-5.7088,-5.7196,-5.7126,-5.7088,-5.7121,-5.7118,-5.7195,-5.7205,-5.7232,-5.7339,-5.7344,-5.7268,-5.7272,-5.7275,-5.7277,0,0,0,0,0,0,0,-5.6875,-5.6892,-5.7053,-5.7021,-5.7025,-5.7025,-5.7037,-5.7109,-5.7153,-5.7091,-5.7091,-5.7105,-5.7197,-5.7225,-5.7235,-5.7346,-5.7268,-5.7274,-5.7278,-5.7281,-5.7531,-5.7533,0,0,0,0,0,0,-5.6865,-5.6886,-5.7049,-5.7057,-5.6947,-5.7031,-5.7044,-5.7084,-5.7152,-5.716,-5.7107,-5.7105,-5.7215,-5.7227,-5.7239,-5.7344,-5.7275,-5.7281,-5.7285,-5.7528,-5.7531,-5.7534,0,0,0,0,0,0,-5.686,-5.688,-5.7045,-5.6971,-5.6992,-5.7037,-5.7081,-5.7087,-5.7116,-5.7164,-5.7172,-5.7128,-5.7214,-5.7229,-5.731,-5.7348,-5.7284,-5.729,-5.7525,-5.7529,-5.7533,-5.7556,0,0,0,0,0,0,-5.6854,-5.6878,-5.6911,-5.6972,-5.6996,-5.7115,-5.7083,-5.7091,-5.7128,-5.7126,-5.7186,-5.7194,-5.7213,-5.73,-5.7317,-5.7356,-5.7296,-5.7522,-5.7527,-5.7531,-5.7552,-5.756,-5.7567,0,0,0,0,0,-5.6846,-5.6913,-5.6913,-5.6933,-5.7039,-5.7117,-5.7131,-5.7152,-5.7131,-5.7164,-5.7196,-5.7192,-5.7342,-5.7309,-5.7327,-5.7369,-5.7519,-5.7525,-5.7531,-5.7548,-5.7558,-5.7567,0,0,0,0,0,0,-5.6854,-5.6921,-5.6922,-5.7011,-5.7059,-5.7117,-5.716,-5.7162,-5.7216,-5.7211,-5.7235,-5.7249,-5.7329,-5.7358,-5.732,-5.7457,-5.7428,-5.7438,-5.7435,-5.7445,-5.7452,-5.7442,-5.7301,0,0,0,0,0,-5.6867,-5.6925,-5.698,-5.7053,-5.7077,-5.7115,-5.7149,-5.7162,-5.7212,-5.7231,-5.7269,-5.7316,-5.7374,-5.7412,-5.7468,-5.7557,-5.757,-5.7596,-5.7603,-5.7609,-5.7616,-5.7665,-5.7677,-5.7553,-5.7553,-5.7553,0,0,-5.6892,-5.6936,-5.6971,-5.7056,-5.7094,-5.7153,-5.7131,-5.7194,-5.7238,-5.7241,-5.7319,-5.7349,-5.7404,-5.7489,-5.7529,-5.7515,-5.7654,-5.7617,-5.7621,-5.7625,-5.7672,-5.7684,-5.7694,-5.7557,-5.7556,-5.7556,0,0,-5.6968,-5.7008,-5.7073,-5.7112,-5.7171,-5.7196,-5.7212,-5.7271,-5.729,-5.737,-5.7373,-5.7426,-5.7526,-5.7564,-5.7597,-5.7691,-5.7689,-5.7709,-5.7747,-5.7794,-5.7804,-5.7813,-5.7844,-5.7855,-5.7717,-5.7717,-5.7717,0,-5.6992,-5.7081,-5.7106,-5.7169,-5.7206,-5.7213,-5.7279,-5.7316,-5.7389,-5.7414,-5.7399,-5.7525,-5.7562,-5.7656,-5.768,-5.7707,-5.7724,-5.77,-5.7801,-5.781,-5.7818,-5.7848,-5.786,-5.7718,-5.7718,-5.7718,-5.7718,0,-5.7106,-5.7169,-5.7214,-5.7286,-5.7329,-5.7393,-5.7426,-5.7467,-5.7477,-5.7503,-5.7584,-5.7631,-5.7696,-5.772,-5.773,-5.7816,-5.7806,-5.7796,-5.7766,-5.7831,-5.786,-5.7872,-5.7721,-5.772,-5.772,-5.7719,0,0,-5.7187,-5.7274,-5.729,-5.7322,-5.7389,-5.7437,-5.7503,-5.7567,-5.76,-5.7653,-5.7706,-5.7792,-5.7783,-5.782,-5.7835,-5.7877,-5.7947,-5.7862,-5.7864,-5.7874,-5.8043,-5.8047,-5.806,-5.7948,-5.795,-5.7952,-5.8037,0,-5.7268,-5.7383,-5.7408,-5.7507,-5.7565,-5.7574,-5.7631,-5.7677,-5.7705,-5.7757,-5.7787,-5.7847,-5.7832,-5.7854,-5.7897,-5.7929,-5.798,-5.7924,-5.7996,-5.7998,-5.7978,-5.8076,-5.8081,-5.8159,-5.8049,-5.8051,-5.8052,0,-5.7376,-5.7432,-5.7537,-5.7596,-5.7621,-5.7672,-5.7733,-5.7784,-5.7838,-5.7855,-5.7898,-5.7909,-5.7976,-5.7947,-5.804,-5.8001,-5.8032,-5.8053,-5.8057,-5.8061,-5.8026,-5.808,-5.8185,-5.8195,-5.807,-5.8069,-5.8068,0,-5.7421,-5.7522,-5.7598,-5.7626,-5.7699,-5.7734,-5.7765,-5.7817,-5.7855,-5.7909,-5.7934,-5.7995,-5.8028,-5.8076,-5.8103,-5.8079,-5.8193,-5.8166,-5.8207,-5.8207,-5.8228,-5.8225,-5.8335,-5.8254,-5.8254,-5.8253,-5.8253,0,-5.7507,-5.757,-5.7619,-5.7665,-5.7737,-5.7766,-5.7835,-5.7867,-5.7913,-5.7965,-5.7979,-5.8027,-5.8062,-5.8115,-5.8138,-5.821,-5.8226,-5.824,-5.8245,-5.8237,-5.8235,-5.8255,-5.8249,-5.8256,-5.8256,-5.8255,-5.8255,0,-5.7567,-5.7603,-5.7686,-5.7749,-5.7766,-5.7815,-5.7869,-5.7914,-5.7943,-5.8009,-5.8026,-5.8071,-5.8135,-5.8168,-5.8248,-5.8263,-5.8343,-5.8346,-5.8325,-5.8326,-5.8364,-5.8359,-5.8489,-5.8507,-5.8416,-5.8417,-5.8418,0,-5.7618,-5.7667,-5.7735,-5.7771,-5.7804,-5.7863,-5.7902,-5.7933,-5.7973,-5.8039,-5.8076,-5.8141,-5.8194,-5.8296,-5.8335,-5.8396,-5.8398,-5.844,-5.8407,-5.8398,-5.8396,-5.8391,-5.8396,-5.8444,-5.8445,-5.8446,-5.8446,0,-5.7702,-5.7718,-5.7774,-5.7837,-5.7884,-5.7934,-5.7984,-5.8013,-5.8053,-5.8098,-5.8163,-5.8205,-5.8287,-5.8351,-5.8415,-5.8447,-5.8453,-5.8457,-5.8469,-5.846,-5.8445,-5.8451,-5.8337,-5.8453,-5.8452,-5.8452,-5.8451,-5.8451,-5.7758,-5.7801,-5.7857,-5.7919,-5.796,-5.8007,-5.8053,-5.8088,-5.8144,-5.8213,-5.8229,-5.8298,-5.8352,-5.844,-5.8474,-5.8528,-5.852,-5.8538,-5.8542,-5.8545,-5.8546,-5.8439,-5.8541,-5.8541,-5.854,-5.854,-5.854,0,-5.7841,-5.7877,-5.7935,-5.8005,-5.8054,-5.8058,-5.8114,-5.8154,-5.8215,-5.8265,-5.8318,-5.8394,-5.8456,-5.8502,-5.8566,-5.86,-5.8605,-5.8616,-5.8612,-5.8619,-5.8551,-5.8533,-5.8611,-5.8611,-5.8611,-5.8611,-5.8611,-5.8611,-5.7889,-5.7963,-5.7986,-5.8081,-5.8118,-5.8186,-5.8217,-5.8261,-5.8301,-5.8385,-5.8437,-5.8468,-5.8516,-5.8584,-5.8641,-5.8653,-5.8674,-5.8685,-5.8696,-5.8631,-5.8624,-5.8616,-5.8599,-5.869,-5.869,-5.8759,-5.876,-5.876]},{"header":{"parameterUnit":"m.s-1","parameterCategory":1,"la1":30.2991,"la2":30.254,"lo1":-89.0895,"lo2":-89.0444,"dy":0.0017,"dx":0.0017,"nx":28,"ny":28,"refTime":"2025-04-03T09:00:00:Z","depth":0,"parameterNumber":3,"parameterNumberName":"V-component_of_WINDS"},"data":[0,0,0,0,0,0,0,0,0,0,0,0,0,0,0,0,0,0,0,0,0,0,0,0,0,0,0,0,0,0,0,0,0,0,0,0,0,0,0,0,0,0,0,0,0,0,0,0,0,0,0,0,0,0,0,0,0,0,3.2707,3.2708,0,3.2814,3.2815,3.2816,3.2854,3.2854,3.2854,3.2853,3.296,3.2963,3.2966,0,0,0,0,0,0,0,0,0,0,0,0,0,3.2536,3.2539,3.2707,3.2708,3.2709,3.2813,3.2815,3.2816,3.2855,3.2854,3.2854,3.2853,3.2959,3.2962,3.2966,0,0,0,0,0,0,0,0,0,0,0,0,0,3.2623,3.254,3.2707,3.2741,3.2745,3.2813,3.2815,3.2817,3.2855,3.2854,3.2854,3.2853,3.2957,3.2962,3.2967,3.3007,0,0,3.2981,3.2983,0,0,0,0,0,0,0,0,3.2618,3.2629,3.2735,3.2739,3.2744,3.282,3.2794,3.288,3.2855,3.2813,3.2853,3.2853,3.2914,3.2922,3.2943,3.3012,3.3016,3.2982,3.2985,3.2987,3.2988,0,0,0,0,0,0,0,3.2612,3.2625,3.2749,3.2736,3.2742,3.2751,3.2763,3.281,3.2865,3.2817,3.282,3.2832,3.2916,3.2938,3.2946,3.3018,3.2982,3.2986,3.2989,3.2991,3.3128,3.3129,0,0,0,0,0,0,3.26,3.262,3.2746,3.2752,3.2678,3.2755,3.2768,3.2796,3.2865,3.2875,3.2832,3.2833,3.293,3.294,3.295,3.3003,3.2987,3.2991,3.2994,3.3128,3.3129,3.3129,0,0,0,0,0,0,3.2597,3.2611,3.2741,3.2687,3.2704,3.2758,3.279,3.2799,3.2821,3.2876,3.2886,3.2845,3.293,3.2943,3.2993,3.3007,3.2993,3.2998,3.3127,3.3128,3.3129,3.3109,0,0,0,0,0,0,3.2591,3.261,3.2625,3.2687,3.2707,3.2783,3.279,3.2801,3.2829,3.2832,3.2891,3.29,3.2931,3.2986,3.2998,3.3014,3.3001,3.3126,3.3127,3.3129,3.3109,3.311,3.311,0,0,0,0,0,3.2585,3.2614,3.2626,3.2641,3.2728,3.2784,3.2795,3.2831,3.283,3.2847,3.2883,3.2899,3.3004,3.2991,3.3005,3.3022,3.3125,3.3127,3.3129,3.3109,3.311,3.311,0,0,0,0,0,0,3.2551,3.2623,3.2636,3.2686,3.2729,3.279,3.2812,3.283,3.2873,3.2873,3.2914,3.2927,3.2975,3.3003,3.2988,3.3066,3.3065,3.307,3.3046,3.3047,3.3048,3.304,3.3005,0,0,0,0,0,3.255,3.259,3.265,3.2688,3.2709,3.2757,3.2783,3.2807,3.2852,3.287,3.2909,3.2952,3.2995,3.3023,3.3065,3.3113,3.3128,3.3132,3.3133,3.3133,3.3137,3.3167,3.317,3.3135,3.3135,3.3135,0,0,3.2546,3.2591,3.2613,3.2683,3.2718,3.2759,3.2772,3.2813,3.2844,3.2876,3.2927,3.2957,3.3008,3.3058,3.3082,3.3083,3.315,3.3136,3.3135,3.3139,3.3169,3.3172,3.3175,3.3137,3.3136,3.3136,0,0,3.2562,3.2599,3.2636,3.2672,3.2727,3.2759,3.2768,3.2828,3.285,3.2902,3.2927,3.2964,3.3037,3.3073,3.3101,3.3133,3.315,3.3146,3.3149,3.3178,3.3181,3.3184,3.3197,3.3201,3.3149,3.3149,3.3149,0,3.2551,3.2614,3.2652,3.2694,3.2725,3.2757,3.2796,3.2829,3.2894,3.2914,3.2915,3.3009,3.3045,3.3106,3.3114,3.3135,3.3147,3.3139,3.3178,3.3181,3.3184,3.3197,3.3202,3.3148,3.3149,3.3149,3.3149,0,3.2598,3.2642,3.2665,3.273,3.2763,3.2803,3.2848,3.2877,3.2898,3.2931,3.2984,3.3029,3.3083,3.3099,3.3119,3.3163,3.3162,3.317,3.317,3.3186,3.3199,3.3204,3.3147,3.3148,3.3148,3.3148,0,0,3.2593,3.2681,3.2689,3.272,3.2785,3.2819,3.2861,3.2915,3.294,3.2984,3.3021,3.3083,3.3092,3.3123,3.3149,3.3174,3.3199,3.3179,3.3181,3.3182,3.3252,3.3247,3.3252,3.3211,3.3212,3.3213,3.3248,0,3.2618,3.2696,3.2733,3.2794,3.2836,3.2868,3.2905,3.2949,3.2981,3.3021,3.3055,3.31,3.3107,3.3126,3.3153,3.319,3.3214,3.3188,3.3246,3.3247,3.3233,3.3258,3.3252,3.3283,3.3253,3.3254,3.3255,0,3.2657,3.2704,3.2769,3.2832,3.285,3.2883,3.2937,3.2975,3.3025,3.3047,3.3084,3.3109,3.3155,3.3152,3.3217,3.3199,3.3225,3.3247,3.3249,3.3256,3.3252,3.3267,3.3294,3.3299,3.3263,3.3262,3.3262,0,3.2649,3.2728,3.2778,3.2803,3.2877,3.2899,3.2931,3.2981,3.3012,3.3059,3.308,3.3131,3.3159,3.3198,3.3237,3.3231,3.3298,3.3298,3.3318,3.3317,3.3331,3.3329,3.3363,3.3346,3.3346,3.3346,3.3346,0,3.2672,3.2712,3.2776,3.2807,3.2852,3.2896,3.2939,3.2973,3.3018,3.3057,3.3088,3.3123,3.3172,3.3213,3.3244,3.3294,3.3306,3.3325,3.3333,3.3323,3.3321,3.3341,3.334,3.3347,3.3347,3.3346,3.3346,0,3.267,3.2715,3.2772,3.2838,3.2856,3.2887,3.2943,3.2975,3.3009,3.3058,3.3072,3.3125,3.3176,3.3219,3.3285,3.3306,3.3358,3.3367,3.3342,3.3346,3.3364,3.3362,3.3412,3.3422,3.3397,3.3397,3.3397,0,3.2683,3.2714,3.2785,3.2814,3.2845,3.2891,3.2923,3.2968,3.3,3.3063,3.3087,3.3141,3.3186,3.3266,3.3311,3.3362,3.3373,3.3387,3.3381,3.3371,3.3375,3.3373,3.3377,3.3388,3.3388,3.3388,3.3388,0,3.2701,3.2723,3.2769,3.2824,3.2862,3.2907,3.2953,3.2975,3.3028,3.3063,3.3117,3.3152,3.3222,3.3275,3.3332,3.3364,3.3385,3.339,3.3397,3.3388,3.3372,3.3383,3.3344,3.3388,3.3388,3.3388,3.3388,3.3388,3.2708,3.2738,3.2794,3.2845,3.2885,3.2927,3.2961,3.3001,3.3047,3.3108,3.3132,3.3187,3.3239,3.3319,3.3351,3.3396,3.3398,3.3408,3.3411,3.3413,3.3413,3.3365,3.3406,3.3406,3.3406,3.3406,3.3406,0,3.2729,3.2767,3.2814,3.2878,3.2919,3.2937,3.2989,3.3022,3.3071,3.3119,3.3164,3.3227,3.3279,3.3329,3.3385,3.3411,3.3422,3.3424,3.3422,3.343,3.3407,3.3395,3.3414,3.3414,3.3414,3.3414,3.3414,3.3414,3.2744,3.2798,3.2826,3.29,3.2938,3.2994,3.3022,3.3063,3.3101,3.3171,3.3215,3.3248,3.3298,3.3358,3.3407,3.3421,3.344,3.344,3.3456,3.3433,3.3431,3.343,3.342,3.3443,3.3443,3.3476,3.3476,3.3476]}]]